TITAN 3C TRANSTAGE DEB, 1835

Orbit data source: Space-Track

TITAN 3C TRANSTAGE DEB, 1835 is space debris in LEO originally from a launch on Fri, 15 Oct 1965 UTC launched from the Air Force Eastern Test Range (AFETR). Debris objects in space refer to the collection of defunct objects orbiting the Earth. Examples of debris include non-operational satellites, rocket bodies, and fragments generated from explosions, collisions, or faulty payload assembly.

Loading next visibility...
TITAN 3C TRANSTAGE DEB details
Identifier
1835, 1965-082EA
Orbit
LEO
Last TLE update2 days ago
Origin
Flag of USUSAF SSD (US)
ManufacturerUnknown
MissionSpacecraft
Bus & MotorUnknown
MassUnknown
Launch date (UTC)
1965-10-15 (59 years ago)
Launch vehicleUnknown
Launch site
Air Force Eastern Test Range (AFETR)
Object type
Payload
Rocket body
Debris
Shape & HBRUnknown
Radar Cross SectionSmall (<0.1 m²)

Expand to show TLE details & history

TLE from 2 days ago
0 TITAN 3C TRANSTAGE DEB
1 01835U 65082EA  25036.00695500  .00007964  00000-0  56669-3 0  9990
2 01835  32.3943 285.1549 0011708 138.9183 221.2362 15.03504838172338
Epoch: 2025-02-05T00:10Z
Definitive object data (Epoch: 2025-02-05T00:10:00.912Z)
Latitude
Longitude147.24702°
Altitude560.858 km
Speed7.58 km/s
True Right ascension19h 00m 37s
True Declination0° 00' 00"
Sunlit
Object was in daylight at TLE epoch
Visualization TLE readout
Latitude-32.06431°
Longitude54.88603°
Altitude567.775 km
Speed7.576 km/s
Apparent Right ascension14h 41m 43s
Apparent Declination-39° 48' 40"
Sunlit
Object is in daylight
Visualization observer readout
Local Sidereal Time04:57:22
Azimuth100.832° ESE
Elevation-64.13°
Doppler factor1
Orbital elements
Apogee altitude567.844 km
Perigee altitude551.599 km
Semi-major axis6,937.859 km
Eccentricity0.0011708
Inclination32.3943°
RAAN285.1549°
Arg. of periapsis138.9183°
True anomaly221.14786°
Mean anomaly221.2362°
Eccentric anomaly221.19202°
Mean motion3.75582 °/min
BSTAR0.00056669
Orbital period95.85 mins
Loading maneuver chart data...

TITAN 3C TRANSTAGE DEB Visibility forecast

Observer location: undefined°, undefined

Span
Click to sort rows by Start time (UTC) header in descending order
Start Az.
Max El. time (UTC)
Max El. Az.
Max El.
End time (UTC)
End Az.
5 mins2025-02-07 19:19:54.378Z200.846° SSW2025-02-07 19:22:54.378Z154.985° SSE15.903°2025-02-07 19:24:54.378Z124.98° SE
5 mins2025-02-07 21:00:54.378Z223.427° SW2025-02-07 21:02:54.378Z185.842° SSW24.667°2025-02-07 21:05:54.378Z124.991° SE
5 mins2025-02-07 22:41:54.378Z233.037° WSW2025-02-07 22:43:54.378Z195.668° SSW22.493°2025-02-07 22:46:54.378Z140.834° SSE
|